owner,sensor,date,latitude,longitude,vertical_datum,sea_water_temperature,qcFlag
BP,ioos:station:wmo:42907:1,2021-11-01T00:07:00Z,28.4401,-88.2729,16.8,26.6,11111222
BP,ioos:station:wmo:42907:1,2021-11-01T00:17:00Z,28.4401,-88.2729,16.9,26.6,11111222
BP,ioos:station:wmo:42907:1,2021-11-01T00:27:00Z,28.4401,-88.2729,16.8,26.6,11111222
BP,ioos:station:wmo:42907:1,2021-11-01T00:37:00Z,28.4401,-88.2729,16.8,26.6,11111222
BP,ioos:station:wmo:42907:1,2021-11-01T00:47:00Z,28.4401,-88.2729,16.8,26.6,11111222
BP,ioos:station:wmo:42907:1,2021-11-01T00:57:00Z,28.4401,-88.2729,17.1,26.5,11111222
BP,ioos:station:wmo:42907:1,2021-11-01T01:07:00Z,28.4401,-88.2729,17.1,26.4,11111222
BP,ioos:station:wmo:42907:1,2021-11-01T01:17:00Z,28.4401,-88.2729,17.1,26.4,11111222
BP,ioos:station:wmo:42907:1,2021-11-01T01:27:00Z,28.4401,-88.2729,17.0,26.4,11111222
BP,ioos:station:wmo:42907:1,2021-11-01T01:37:00Z,28.4401,-88.2729,17.0,26.3,11111222
BP,ioos:station:wmo:42907:1,2021-11-01T01:47:00Z,28.4401,-88.2729,16.9,26.3,11111222
BP,ioos:station:wmo:42907:1,2021-11-01T01:57:00Z,28.4401,-88.2729,17.0,26.3,11111222
BP,ioos:station:wmo:42907:1,2021-11-01T02:07:00Z,28.4401,-88.2729,17.2,26.3,11111222
BP,ioos:station:wmo:42907:1,2021-11-02T16:12:00Z,28.4401,-88.2729,19.4,26.0,11111222
BP,ioos:station:wmo:42907:1,2021-11-02T16:22:00Z,28.4401,-88.2729,19.2,26.0,11111222
BP,ioos:station:wmo:42907:1,2021-11-02T16:32:00Z,28.4401,-88.2729,19.3,26.0,11111222
BP,ioos:station:wmo:42907:1,2021-11-02T16:42:00Z,28.4401,-88.2729,19.3,26.0,11111222
BP,ioos:station:wmo:42907:1,2021-11-02T16:52:00Z,28.4401,-88.2729,19.3,26.0,11111222
BP,ioos:station:wmo:42907:1,2021-11-02T17:05:00Z,28.4776,-88.1676,19.2,26.0,11111222
BP,ioos:station:wmo:42907:1,2021-11-02T17:15:00Z,28.4776,-88.1676,19.2,26.0,11111222
BP,ioos:station:wmo:42907:1,2021-11-02T17:25:00Z,28.4776,-88.1676,19.3,26.1,11111222
BP,ioos:station:wmo:42907:1,2021-11-02T17:35:00Z,28.4776,-88.1676,19.3,26.1,11111222
BP,ioos:station:wmo:42907:1,2021-11-02T17:45:00Z,28.4776,-88.1676,19.2,26.1,11111222
BP,ioos:station:wmo:42907:1,2021-11-02T17:55:00Z,28.4776,-88.1676,19.2,26.0,11111222
BP,ioos:station:wmo:42907:1,2021-11-02T18:05:00Z,28.4776,-88.1676,19.3,26.1,11111222
BP,ioos:station:wmo:42907:1,2021-11-02T18:15:00Z,28.4776,-88.1676,19.4,26.2,11111222
BP,ioos:station:wmo:42907:1,2021-11-02T18:25:00Z,28.4776,-88.1676,19.6,26.1,11111222
BP,ioos:station:wmo:42907:1,2021-11-02T18:35:00Z,28.4776,-88.1676,19.5,26.2,11111222
BP,ioos:station:wmo:42907:1,2021-11-02T18:45:00Z,28.4776,-88.1676,19.5,26.3,11111222
BP,ioos:station:wmo:42907:1,2021-11-02T18:55:00Z,28.4776,-88.1676,19.5,26.2,11111222
BP,ioos:station:wmo:42907:1,2021-11-02T19:05:00Z,28.4776,-88.1676,19.6,26.3,11111222
BP,ioos:station:wmo:42907:1,2021-11-02T19:15:00Z,28.4776,-88.1676,19.6,26.3,11111222
BP,ioos:station:wmo:42907:1,2021-11-02T19:25:00Z,28.4776,-88.1676,19.4,26.3,11111222
BP,ioos:station:wmo:42907:1,2021-11-02T19:35:00Z,28.4776,-88.1676,19.4,26.3,11111222
BP,ioos:station:wmo:42907:1,2021-11-02T19:46:00Z,28.4776,-88.1676,19.5,26.3,11111222
BP,ioos:station:wmo:42907:1,2021-11-02T19:56:00Z,28.4776,-88.1676,19.4,26.3,11111222
BP,ioos:station:wmo:42907:1,2021-11-02T20:06:00Z,28.4776,-88.1676,19.3,26.3,11111222
BP,ioos:station:wmo:42907:1,2021-11-02T20:16:00Z,28.4776,-88.1676,19.3,26.3,11111222
BP,ioos:station:wmo:42907:1,2021-11-02T20:26:00Z,28.4776,-88.1676,19.3,26.3,11111222
BP,ioos:station:wmo:42907:1,2021-11-02T20:36:00Z,28.4776,-88.1676,19.3,26.3,11111222
BP,ioos:station:wmo:42907:1,2021-11-02T20:46:00Z,28.4776,-88.1676,19.3,26.3,11111222
BP,ioos:station:wmo:42907:1,2021-11-02T20:56:00Z,28.4776,-88.1676,19.3,26.3,11111222
BP,ioos:station:wmo:42907:1,2021-11-02T21:06:00Z,28.4776,-88.1676,19.4,26.3,11111222
BP,ioos:station:wmo:42907:1,2021-11-02T21:16:00Z,28.4776,-88.1676,19.4,26.3,11111222
BP,ioos:station:wmo:42907:1,2021-11-02T21:26:00Z,28.4776,-88.1676,19.5,26.3,11111222
BP,ioos:station:wmo:42907:1,2021-11-02T21:36:00Z,28.4776,-88.1676,19.5,26.3,11111222
BP,ioos:station:wmo:42907:1,2021-11-02T21:46:00Z,28.4776,-88.1676,19.5,26.3,11111222
BP,ioos:station:wmo:42907:1,2021-11-02T21:56:00Z,28.4776,-88.1676,19.4,26.3,11111222
BP,ioos:station:wmo:42907:1,2021-11-02T22:06:00Z,28.4776,-88.1676,19.4,26.3,11111222
BP,ioos:station:wmo:42907:1,2021-11-02T22:16:00Z,28.4776,-88.1676,19.4,26.3,11111222
BP,ioos:station:wmo:42907:1,2021-11-02T22:26:00Z,28.4776,-88.1676,19.3,26.3,11111222
BP,ioos:station:wmo:42907:1,2021-11-02T22:36:00Z,28.4776,-88.1676,19.3,26.3,11111222
BP,ioos:station:wmo:42907:1,2021-11-02T22:46:00Z,28.4776,-88.1676,19.3,26.4,11111222
BP,ioos:station:wmo:42907:1,2021-11-02T22:56:00Z,28.4776,-88.1676,19.3,26.3,11111222
BP,ioos:station:wmo:42907:1,2021-11-02T23:06:00Z,28.4776,-88.1676,19.3,26.3,11111222
BP,ioos:station:wmo:42907:1,2021-11-02T23:16:00Z,28.4776,-88.1676,19.3,26.3,11111222
BP,ioos:station:wmo:42907:1,2021-11-02T23:26:00Z,28.4776,-88.1676,19.3,26.3,11111222
BP,ioos:station:wmo:42907:1,2021-11-02T23:36:00Z,28.4776,-88.1676,19.4,26.4,11111222
BP,ioos:station:wmo:42907:1,2021-11-02T23:46:00Z,28.4776,-88.1676,19.4,26.4,11111222
BP,ioos:station:wmo:42907:1,2021-11-02T23:56:00Z,28.4776,-88.1676,19.3,26.3,11111222
BP,ioos:station:wmo:42907:1,2021-11-03T00:06:00Z,28.4776,-88.1676,19.4,26.3,11111222
BP,ioos:station:wmo:42907:1,2021-11-03T00:16:00Z,28.4776,-88.1676,19.4,26.3,11111222
BP,ioos:station:wmo:42907:1,2021-11-03T00:26:00Z,28.4776,-88.1676,19.4,26.3,11111222
BP,ioos:station:wmo:42907:1,2021-11-03T00:36:00Z,28.4776,-88.1676,19.4,26.3,11111222
BP,ioos:station:wmo:42907:1,2021-11-03T00:46:00Z,28.4776,-88.1676,19.3,26.3,11111222
BP,ioos:station:wmo:42907:1,2021-11-03T00:56:00Z,28.4776,-88.1676,19.3,26.3,11111222
BP,ioos:station:wmo:42907:1,2021-11-03T01:06:00Z,28.4776,-88.1676,19.3,26.3,11111222
BP,ioos:station:wmo:42907:1,2021-11-03T01:16:00Z,28.4776,-88.1676,19.3,26.3,11111222
BP,ioos:station:wmo:42907:1,2021-11-03T01:26:00Z,28.4776,-88.1676,19.3,26.3,11111222
BP,ioos:station:wmo:42907:1,2021-11-03T01:36:00Z,28.4776,-88.1676,19.3,26.3,11111222
BP,ioos:station:wmo:42907:1,2021-11-03T01:46:00Z,28.4776,-88.1676,19.3,26.2,11111222
BP,ioos:station:wmo:42907:1,2021-11-03T01:56:00Z,28.4776,-88.1676,19.3,26.2,11111222
BP,ioos:station:wmo:42907:1,2021-11-03T02:06:00Z,28.4776,-88.1676,19.3,26.3,11111222
BP,ioos:station:wmo:42907:1,2021-11-03T02:16:00Z,28.4776,-88.1676,19.3,26.3,11111222
BP,ioos:station:wmo:42907:1,2021-11-03T02:26:00Z,28.4776,-88.1676,19.1,26.3,11111222
BP,ioos:station:wmo:42907:1,2021-11-03T02:36:00Z,28.4776,-88.1676,19.3,26.3,11111222
BP,ioos:station:wmo:42907:1,2021-11-03T02:46:00Z,28.4776,-88.1676,19.4,26.2,11111222
BP,ioos:station:wmo:42907:1,2021-11-03T02:56:00Z,28.4776,-88.1676,19.3,26.2,11111222
BP,ioos:station:wmo:42907:1,2021-11-03T03:07:00Z,28.4776,-88.1676,19.1,26.3,11111222
BP,ioos:station:wmo:42907:1,2021-11-03T03:17:00Z,28.4776,-88.1676,19.2,26.3,11111222
BP,ioos:station:wmo:42907:1,2021-11-03T03:27:00Z,28.4776,-88.1676,19.2,26.4,11111222
BP,ioos:station:wmo:42907:1,2021-11-03T03:37:00Z,28.4776,-88.1676,19.2,26.3,11111222
BP,ioos:station:wmo:42907:1,2021-11-03T03:47:00Z,28.4776,-88.1676,19.1,26.2,11111222
BP,ioos:station:wmo:42907:1,2021-11-03T03:57:00Z,28.4776,-88.1676,19.2,26.3,11111222
BP,ioos:station:wmo:42907:1,2021-11-03T04:07:00Z,28.4776,-88.1676,19.2,26.3,11111222
BP,ioos:station:wmo:42907:1,2021-11-03T04:17:00Z,28.4776,-88.1676,19.2,26.2,11111222
BP,ioos:station:wmo:42907:1,2021-11-03T04:27:00Z,28.4776,-88.1676,19.2,26.3,11111222
BP,ioos:station:wmo:42907:1,2021-11-03T04:37:00Z,28.4776,-88.1676,19.3,26.3,11111222
BP,ioos:station:wmo:42907:1,2021-11-03T04:47:00Z,28.4776,-88.1676,19.4,26.3,11111222
BP,ioos:station:wmo:42907:1,2021-11-03T04:57:00Z,28.4776,-88.1676,19.4,26.2,11111222
BP,ioos:station:wmo:42907:1,2021-11-03T05:07:00Z,28.4776,-88.1676,19.4,26.2,11111222
BP,ioos:station:wmo:42907:1,2021-11-03T05:17:00Z,28.4776,-88.1676,19.4,26.2,11111222
BP,ioos:station:wmo:42907:1,2021-11-03T05:27:00Z,28.4776,-88.1676,19.3,26.2,11111222
BP,ioos:station:wmo:42907:1,2021-11-03T05:37:00Z,28.4776,-88.1676,19.4,26.2,11111222
BP,ioos:station:wmo:42907:1,2021-11-03T05:47:00Z,28.4776,-88.1676,19.3,26.1,11111222
BP,ioos:station:wmo:42907:1,2021-11-03T05:57:00Z,28.4776,-88.1676,19.3,26.2,11111222
BP,ioos:station:wmo:42907:1,2021-11-03T06:07:00Z,28.4776,-88.1676,19.3,26.3,11111222
BP,ioos:station:wmo:42907:1,2021-11-03T06:17:00Z,28.4776,-88.1676,19.3,26.2,11111222
BP,ioos:station:wmo:42907:1,2021-11-03T06:27:00Z,28.4776,-88.1676,19.3,26.2,11111222
BP,ioos:station:wmo:42907:1,2021-11-03T06:37:00Z,28.4776,-88.1676,19.3,26.1,11111222
BP,ioos:station:wmo:42907:1,2021-11-03T06:47:00Z,28.4776,-88.1676,19.3,26.1,11111222
BP,ioos:station:wmo:42907:1,2021-11-03T06:57:00Z,28.4776,-88.1676,19.3,26.1,11111222
BP,ioos:station:wmo:42907:1,2021-11-03T07:07:00Z,28.4776,-88.1676,19.3,26.1,11111222
BP,ioos:station:wmo:42907:1,2021-11-03T07:17:00Z,28.4776,-88.1676,19.3,26.1,11111222
BP,ioos:station:wmo:42907:1,2021-11-03T07:27:00Z,28.4776,-88.1676,19.3,26.1,11111222
BP,ioos:station:wmo:42907:1,2021-11-03T07:37:00Z,28.4776,-88.1676,19.3,26.1,11111222
BP,ioos:station:wmo:42907:1,2021-11-03T07:47:00Z,28.4776,-88.1676,19.3,26.1,11111222
BP,ioos:station:wmo:42907:1,2021-11-03T07:57:00Z,28.4776,-88.1676,19.3,26.1,11111222
BP,ioos:station:wmo:42907:1,2021-11-03T08:07:00Z,28.4776,-88.1676,19.3,26.2,11111222
BP,ioos:station:wmo:42907:1,2021-11-03T08:17:00Z,28.4776,-88.1676,19.3,26.2,11111222
BP,ioos:station:wmo:42907:1,2021-11-03T08:27:00Z,28.4776,-88.1676,19.3,26.2,11111222
BP,ioos:station:wmo:42907:1,2021-11-03T08:37:00Z,28.4776,-88.1676,19.3,26.2,11111222
BP,ioos:station:wmo:42907:1,2021-11-03T08:47:00Z,28.4776,-88.1676,19.4,26.2,11111222
BP,ioos:station:wmo:42907:1,2021-11-03T08:57:00Z,28.4776,-88.1676,19.4,26.1,11111222
BP,ioos:station:wmo:42907:1,2021-11-03T09:07:00Z,28.4776,-88.1676,19.4,26.1,11111222
BP,ioos:station:wmo:42907:1,2021-11-03T09:17:00Z,28.4776,-88.1676,19.5,26.1,11111222
BP,ioos:station:wmo:42907:1,2021-11-03T09:27:00Z,28.4776,-88.1676,19.3,26.1,11111222
BP,ioos:station:wmo:42907:1,2021-11-03T09:37:00Z,28.4776,-88.1676,19.3,26.1,11111222
BP,ioos:station:wmo:42907:1,2021-11-03T09:47:00Z,28.4776,-88.1676,19.3,26.1,11111222
BP,ioos:station:wmo:42907:1,2021-11-03T09:57:00Z,28.4776,-88.1676,19.3,26.1,11111222
BP,ioos:station:wmo:42907:1,2021-11-03T10:07:00Z,28.4776,-88.1676,19.3,26.1,11111222
BP,ioos:station:wmo:42907:1,2021-11-03T10:17:00Z,28.4776,-88.1676,19.2,26.1,11111222
BP,ioos:station:wmo:42907:1,2021-11-03T10:28:00Z,28.4776,-88.1676,19.3,26.1,11111222
BP,ioos:station:wmo:42907:1,2021-11-03T10:38:00Z,28.4776,-88.1676,19.3,26.1,11111222
BP,ioos:station:wmo:42907:1,2021-11-03T10:48:00Z,28.4776,-88.1676,19.3,26.1,11111222
BP,ioos:station:wmo:42907:1,2021-11-03T10:58:00Z,28.4776,-88.1676,19.2,26.1,11111222
BP,ioos:station:wmo:42907:1,2021-11-03T11:08:00Z,28.4776,-88.1676,19.2,26.0,11111222
BP,ioos:station:wmo:42907:1,2021-11-03T11:18:00Z,28.4776,-88.1676,19.3,26.0,11111222
BP,ioos:station:wmo:42907:1,2021-11-03T11:28:00Z,28.4776,-88.1676,19.2,26.0,11111222
BP,ioos:station:wmo:42907:1,2021-11-03T11:38:00Z,28.4776,-88.1676,19.2,26.1,11111222
BP,ioos:station:wmo:42907:1,2021-11-03T11:48:00Z,28.4776,-88.1676,19.2,26.1,11111222
BP,ioos:station:wmo:42907:1,2021-11-03T11:58:00Z,28.4776,-88.1676,19.2,26.1,11111222
BP,ioos:station:wmo:42907:1,2021-11-03T12:08:00Z,28.4776,-88.1676,19.2,26.0,11111222
BP,ioos:station:wmo:42907:1,2021-11-03T12:18:00Z,28.4776,-88.1676,19.2,26.0,11111222
BP,ioos:station:wmo:42907:1,2021-11-03T12:28:00Z,28.4776,-88.1676,19.2,26.0,11111222
BP,ioos:station:wmo:42907:1,2021-11-03T12:38:00Z,28.4776,-88.1676,19.3,26.0,11111222
BP,ioos:station:wmo:42907:1,2021-11-03T12:48:00Z,28.4776,-88.1676,19.3,26.0,11111222
BP,ioos:station:wmo:42907:1,2021-11-03T12:58:00Z,28.4776,-88.1676,19.3,26.0,11111222
BP,ioos:station:wmo:42907:1,2021-11-03T13:08:00Z,28.4776,-88.1676,19.3,26.0,11111222
BP,ioos:station:wmo:42907:1,2021-11-03T13:18:00Z,28.4776,-88.1676,19.3,26.1,11111222
BP,ioos:station:wmo:42907:1,2021-11-03T13:28:00Z,28.4776,-88.1676,19.3,26.1,11111222
BP,ioos:station:wmo:42907:1,2021-11-03T13:38:00Z,28.4776,-88.1676,19.2,26.1,11111222
BP,ioos:station:wmo:42907:1,2021-11-03T13:48:00Z,28.4776,-88.1676,19.2,26.1,11111222
BP,ioos:station:wmo:42907:1,2021-11-03T13:58:00Z,28.4776,-88.1676,19.3,26.1,11111222
BP,ioos:station:wmo:42907:1,2021-11-03T14:08:00Z,28.4776,-88.1676,19.3,26.1,11111222
BP,ioos:station:wmo:42907:1,2021-11-03T14:18:00Z,28.4776,-88.1676,19.3,26.1,11111222
BP,ioos:station:wmo:42907:1,2021-11-03T14:28:00Z,28.4776,-88.1676,19.2,26.1,11111222
BP,ioos:station:wmo:42907:1,2021-11-03T14:38:00Z,28.4776,-88.1676,19.2,26.1,11111222
BP,ioos:station:wmo:42907:1,2021-11-03T14:48:00Z,28.4776,-88.1676,19.3,26.1,11111222
BP,ioos:station:wmo:42907:1,2021-11-03T14:58:00Z,28.4776,-88.1676,19.2,26.1,11111222
BP,ioos:station:wmo:42907:1,2021-11-03T15:08:00Z,28.4776,-88.1676,19.2,26.2,11111222
BP,ioos:station:wmo:42907:1,2021-11-03T15:18:00Z,28.4776,-88.1676,19.2,26.2,11111222
BP,ioos:station:wmo:42907:1,2021-11-03T15:28:00Z,28.4776,-88.1676,19.2,26.2,11111222
BP,ioos:station:wmo:42907:1,2021-11-03T15:38:00Z,28.4776,-88.1676,19.2,26.2,11111222
BP,ioos:station:wmo:42907:1,2021-11-03T15:48:00Z,28.4776,-88.1676,19.2,26.2,11111222
BP,ioos:station:wmo:42907:1,2021-11-03T15:58:00Z,28.4776,-88.1676,19.2,26.2,11111222
BP,ioos:station:wmo:42907:1,2021-11-03T16:08:00Z,28.4776,-88.1676,19.2,26.2,11111222
BP,ioos:station:wmo:42907:1,2021-11-03T16:18:00Z,28.4776,-88.1676,19.2,26.1,11111222
BP,ioos:station:wmo:42907:1,2021-11-03T16:28:00Z,28.4776,-88.1676,19.2,26.1,11111222
BP,ioos:station:wmo:42907:1,2021-11-03T16:38:00Z,28.4776,-88.1676,19.2,26.1,11111222
BP,ioos:station:wmo:42907:1,2021-11-03T16:48:00Z,28.4776,-88.1676,19.2,26.1,11111222
BP,ioos:station:wmo:42907:1,2021-11-03T16:58:00Z,28.4776,-88.1676,19.2,26.1,11111222
BP,ioos:station:wmo:42907:1,2021-11-03T17:08:00Z,28.4776,-88.1676,19.2,26.2,11111222
BP,ioos:station:wmo:42907:1,2021-11-03T17:18:00Z,28.4776,-88.1676,19.2,26.2,11111222
BP,ioos:station:wmo:42907:1,2021-11-03T17:28:00Z,28.4776,-88.1676,19.2,26.2,11111222
BP,ioos:station:wmo:42907:1,2021-11-03T17:39:00Z,28.4776,-88.1676,19.2,26.2,11111222
BP,ioos:station:wmo:42907:1,2021-11-03T17:49:00Z,28.4776,-88.1676,19.2,26.3,11111222
BP,ioos:station:wmo:42907:1,2021-11-03T17:59:00Z,28.4776,-88.1676,19.3,26.3,11111222
BP,ioos:station:wmo:42907:1,2021-11-03T18:09:00Z,28.4776,-88.1676,19.2,26.3,11111222
BP,ioos:station:wmo:42907:1,2021-11-03T18:19:00Z,28.4776,-88.1676,19.2,26.2,11111222
BP,ioos:station:wmo:42907:1,2021-11-03T18:29:00Z,28.4776,-88.1676,19.3,26.2,11111222
BP,ioos:station:wmo:42907:1,2021-11-03T18:39:00Z,28.4776,-88.1676,19.3,26.2,11111222
BP,ioos:station:wmo:42907:1,2021-11-03T18:49:00Z,28.4776,-88.1676,19.3,26.2,11111222
BP,ioos:station:wmo:42907:1,2021-11-03T18:59:00Z,28.4776,-88.1676,19.3,26.2,11111222
BP,ioos:station:wmo:42907:1,2021-11-03T19:09:00Z,28.4776,-88.1676,19.3,26.3,11111222
BP,ioos:station:wmo:42907:1,2021-11-03T19:19:00Z,28.4776,-88.1676,19.3,26.3,11111222
BP,ioos:station:wmo:42907:1,2021-11-03T19:29:00Z,28.4776,-88.1676,19.3,26.3,11111222
BP,ioos:station:wmo:42907:1,2021-11-03T19:39:00Z,28.4776,-88.1676,19.3,26.3,11111222
BP,ioos:station:wmo:42907:1,2021-11-03T19:49:00Z,28.4776,-88.1676,19.3,26.3,11111222
BP,ioos:station:wmo:42907:1,2021-11-03T19:59:00Z,28.4776,-88.1676,19.4,26.3,11111222
BP,ioos:station:wmo:42907:1,2021-11-03T20:09:00Z,28.4776,-88.1676,19.4,26.3,11111222
BP,ioos:station:wmo:42907:1,2021-11-03T20:19:00Z,28.4776,-88.1676,19.4,26.2,11111222
BP,ioos:station:wmo:42907:1,2021-11-03T20:29:00Z,28.4776,-88.1676,19.4,26.2,11111222
BP,ioos:station:wmo:42907:1,2021-11-03T20:39:00Z,28.4776,-88.1676,19.3,26.2,11111222
BP,ioos:station:wmo:42907:1,2021-11-03T20:49:00Z,28.4776,-88.1676,19.4,26.2,11111222
BP,ioos:station:wmo:42907:1,2021-11-03T20:59:00Z,28.4776,-88.1676,19.4,26.3,11111222
BP,ioos:station:wmo:42907:1,2021-11-03T21:09:00Z,28.4776,-88.1676,19.3,26.3,11111222
BP,ioos:station:wmo:42907:1,2021-11-03T21:19:00Z,28.4776,-88.1676,19.3,26.3,11111222
BP,ioos:station:wmo:42907:1,2021-11-03T21:29:00Z,28.4776,-88.1676,19.2,26.3,11111222
BP,ioos:station:wmo:42907:1,2021-11-03T21:39:00Z,28.4776,-88.1676,19.2,26.2,11111222
BP,ioos:station:wmo:42907:1,2021-11-03T21:49:00Z,28.4776,-88.1676,19.2,26.2,11111222
BP,ioos:station:wmo:42907:1,2021-11-03T21:59:00Z,28.4776,-88.1676,19.2,26.2,11111222
BP,ioos:station:wmo:42907:1,2021-11-03T22:09:00Z,28.4776,-88.1676,19.2,26.3,11111222
BP,ioos:station:wmo:42907:1,2021-11-03T22:19:00Z,28.4776,-88.1676,19.2,26.2,11111222
BP,ioos:station:wmo:42907:1,2021-11-03T22:29:00Z,28.4776,-88.1676,19.2,26.3,11111222
BP,ioos:station:wmo:42907:1,2021-11-03T22:39:00Z,28.4776,-88.1676,19.2,26.3,11111222
BP,ioos:station:wmo:42907:1,2021-11-03T22:49:00Z,28.4776,-88.1676,19.2,26.3,11111222
BP,ioos:station:wmo:42907:1,2021-11-03T22:59:00Z,28.4776,-88.1676,19.2,26.3,11111222
BP,ioos:station:wmo:42907:1,2021-11-03T23:09:00Z,28.4776,-88.1676,19.2,26.4,11111222
BP,ioos:station:wmo:42907:1,2021-11-03T23:19:00Z,28.4776,-88.1676,19.2,26.4,11111222
BP,ioos:station:wmo:42907:1,2021-11-03T23:29:00Z,28.4776,-88.1676,19.1,26.4,11111222
BP,ioos:station:wmo:42907:1,2021-11-03T23:39:00Z,28.4776,-88.1676,19.1,26.4,11111222
BP,ioos:station:wmo:42907:1,2021-11-03T23:49:00Z,28.4776,-88.1676,19.3,26.4,11111222
BP,ioos:station:wmo:42907:1,2021-11-03T23:59:00Z,28.4776,-88.1676,19.3,26.3,11111222
BP,ioos:station:wmo:42907:1,2021-11-04T00:09:00Z,28.4776,-88.1676,19.4,26.3,11111222
BP,ioos:station:wmo:42907:1,2021-11-04T00:19:00Z,28.4776,-88.1676,19.5,26.3,11111222
BP,ioos:station:wmo:42907:1,2021-11-04T00:29:00Z,28.4776,-88.1676,19.4,26.3,11111222
BP,ioos:station:wmo:42907:1,2021-11-04T00:39:00Z,28.4776,-88.1676,19.3,26.3,11111222
BP,ioos:station:wmo:42907:1,2021-11-04T00:49:00Z,28.4776,-88.1676,19.3,26.3,11111222
BP,ioos:station:wmo:42907:1,2021-11-04T01:00:00Z,28.4776,-88.1676,19.3,26.3,11111222
BP,ioos:station:wmo:42907:1,2021-11-04T01:10:00Z,28.4776,-88.1676,19.2,26.3,11111222
BP,ioos:station:wmo:42907:1,2021-11-04T01:20:00Z,28.4776,-88.1676,19.2,26.3,11111222
BP,ioos:station:wmo:42907:1,2021-11-04T01:30:00Z,28.4776,-88.1676,19.3,26.3,11111222
BP,ioos:station:wmo:42907:1,2021-11-04T01:40:00Z,28.4776,-88.1676,19.3,26.3,11111222
BP,ioos:station:wmo:42907:1,2021-11-04T01:50:00Z,28.4776,-88.1676,19.2,26.3,11111222
BP,ioos:station:wmo:42907:1,2021-11-04T02:00:00Z,28.4776,-88.1676,19.2,26.3,11111222
BP,ioos:station:wmo:42907:1,2021-11-04T02:10:00Z,28.4776,-88.1676,19.3,26.3,11111222
BP,ioos:station:wmo:42907:1,2021-11-04T02:20:00Z,28.4776,-88.1676,19.2,26.3,11111222
BP,ioos:station:wmo:42907:1,2021-11-04T02:30:00Z,28.4776,-88.1676,19.2,26.3,11111222
BP,ioos:station:wmo:42907:1,2021-11-04T02:40:00Z,28.4776,-88.1676,19.2,26.3,11111222
BP,ioos:station:wmo:42907:1,2021-11-04T02:50:00Z,28.4776,-88.1676,19.1,26.3,11111222
BP,ioos:station:wmo:42907:1,2021-11-04T03:00:00Z,28.4776,-88.1676,19.1,26.3,11111222
BP,ioos:station:wmo:42907:1,2021-11-04T03:10:00Z,28.4776,-88.1676,19.1,26.3,11111222
BP,ioos:station:wmo:42907:1,2021-11-04T03:20:00Z,28.4776,-88.1676,19.1,26.3,11111222
BP,ioos:station:wmo:42907:1,2021-11-04T03:30:00Z,28.4776,-88.1676,19.3,26.3,11111222
BP,ioos:station:wmo:42907:1,2021-11-04T03:40:00Z,28.4776,-88.1676,19.4,26.3,11111222
BP,ioos:station:wmo:42907:1,2021-11-04T03:50:00Z,28.4776,-88.1676,19.4,26.3,11111222
BP,ioos:station:wmo:42907:1,2021-11-04T04:00:00Z,28.4776,-88.1676,19.3,26.3,11111222
BP,ioos:station:wmo:42907:1,2021-11-04T04:10:00Z,28.4776,-88.1676,19.4,26.3,11111222
BP,ioos:station:wmo:42907:1,2021-11-04T04:20:00Z,28.4776,-88.1676,19.4,26.3,11111222
BP,ioos:station:wmo:42907:1,2021-11-04T04:30:00Z,28.4776,-88.1676,19.3,26.3,11111222
BP,ioos:station:wmo:42907:1,2021-11-04T04:40:00Z,28.4776,-88.1676,19.3,26.3,11111222
BP,ioos:station:wmo:42907:1,2021-11-04T04:50:00Z,28.4776,-88.1676,19.3,26.3,11111222
BP,ioos:station:wmo:42907:1,2021-11-04T05:00:00Z,28.4776,-88.1676,19.4,26.3,11111222
BP,ioos:station:wmo:42907:1,2021-11-04T05:10:00Z,28.4776,-88.1676,19.5,26.3,11111222
BP,ioos:station:wmo:42907:1,2021-11-04T05:20:00Z,28.4776,-88.1676,19.4,26.3,11111222
BP,ioos:station:wmo:42907:1,2021-11-04T05:30:00Z,28.4776,-88.1676,19.4,26.3,11111222
BP,ioos:station:wmo:42907:1,2021-11-04T05:40:00Z,28.4776,-88.1676,19.4,26.3,11111222
BP,ioos:station:wmo:42907:1,2021-11-04T05:50:00Z,28.4776,-88.1676,19.4,26.3,11111222
BP,ioos:station:wmo:42907:1,2021-11-04T06:00:00Z,28.4776,-88.1676,19.5,26.3,11111222
BP,ioos:station:wmo:42907:1,2021-11-04T06:10:00Z,28.4776,-88.1676,19.3,26.3,11111222
BP,ioos:station:wmo:42907:1,2021-11-04T06:20:00Z,28.4776,-88.1676,19.3,26.3,11111222
BP,ioos:station:wmo:42907:1,2021-11-04T06:30:00Z,28.4776,-88.1676,19.3,26.3,11111222
BP,ioos:station:wmo:42907:1,2021-11-04T06:40:00Z,28.4776,-88.1676,19.4,26.3,11111222
BP,ioos:station:wmo:42907:1,2021-11-04T06:50:00Z,28.4776,-88.1676,19.4,26.3,11111222
BP,ioos:station:wmo:42907:1,2021-11-04T07:00:00Z,28.4776,-88.1676,19.4,26.3,11111222
BP,ioos:station:wmo:42907:1,2021-11-04T07:10:00Z,28.4776,-88.1676,19.4,26.3,11111222
BP,ioos:station:wmo:42907:1,2021-11-04T07:20:00Z,28.4776,-88.1676,19.4,26.3,11111222
BP,ioos:station:wmo:42907:1,2021-11-04T07:30:00Z,28.4776,-88.1676,19.4,26.3,11111222
BP,ioos:station:wmo:42907:1,2021-11-04T07:40:00Z,28.4776,-88.1676,19.4,26.3,11111222
BP,ioos:station:wmo:42907:1,2021-11-04T07:50:00Z,28.4776,-88.1676,19.4,26.3,11111222
BP,ioos:station:wmo:42907:1,2021-11-04T08:00:00Z,28.4776,-88.1676,19.5,26.3,11111222
BP,ioos:station:wmo:42907:1,2021-11-04T08:10:00Z,28.4776,-88.1676,19.5,26.3,11111222
BP,ioos:station:wmo:42907:1,2021-11-04T08:21:00Z,28.4776,-88.1676,19.5,26.3,11111222
BP,ioos:station:wmo:42907:1,2021-11-04T08:31:00Z,28.4776,-88.1676,19.5,26.3,11111222
BP,ioos:station:wmo:42907:1,2021-11-04T08:41:00Z,28.4776,-88.1676,19.3,26.3,11111222
BP,ioos:station:wmo:42907:1,2021-11-04T08:51:00Z,28.4776,-88.1676,19.2,26.3,11111222
BP,ioos:station:wmo:42907:1,2021-11-04T09:01:00Z,28.4776,-88.1676,19.3,26.3,11111222
BP,ioos:station:wmo:42907:1,2021-11-04T09:11:00Z,28.4776,-88.1676,19.3,26.3,11111222
BP,ioos:station:wmo:42907:1,2021-11-04T09:21:00Z,28.4776,-88.1676,19.2,26.3,11111222
BP,ioos:station:wmo:42907:1,2021-11-04T09:31:00Z,28.4776,-88.1676,19.1,26.3,11111222
BP,ioos:station:wmo:42907:1,2021-11-04T09:41:00Z,28.4776,-88.1676,19.1,26.3,11111222
BP,ioos:station:wmo:42907:1,2021-11-04T09:51:00Z,28.4776,-88.1676,19.1,26.3,11111222
BP,ioos:station:wmo:42907:1,2021-11-04T10:01:00Z,28.4776,-88.1676,19.2,26.3,11111222
BP,ioos:station:wmo:42907:1,2021-11-04T10:11:00Z,28.4776,-88.1676,19.3,26.3,11111222
BP,ioos:station:wmo:42907:1,2021-11-04T10:21:00Z,28.4776,-88.1676,19.3,26.3,11111222
BP,ioos:station:wmo:42907:1,2021-11-04T10:31:00Z,28.4776,-88.1676,19.3,26.3,11111222
BP,ioos:station:wmo:42907:1,2021-11-04T10:41:00Z,28.4776,-88.1676,19.4,26.3,11111222
BP,ioos:station:wmo:42907:1,2021-11-04T10:51:00Z,28.4776,-88.1676,19.2,26.3,11111222
BP,ioos:station:wmo:42907:1,2021-11-04T11:01:00Z,28.4776,-88.1676,19.2,26.3,11111222
BP,ioos:station:wmo:42907:1,2021-11-04T11:11:00Z,28.4776,-88.1676,19.2,26.3,11111222
BP,ioos:station:wmo:42907:1,2021-11-04T11:21:00Z,28.4776,-88.1676,19.3,26.3,11111222
BP,ioos:station:wmo:42907:1,2021-11-04T11:31:00Z,28.4776,-88.1676,19.3,26.3,11111222
BP,ioos:station:wmo:42907:1,2021-11-04T11:41:00Z,28.4776,-88.1676,19.3,26.3,11111222
BP,ioos:station:wmo:42907:1,2021-11-04T11:51:00Z,28.4776,-88.1676,19.3,26.3,11111222
BP,ioos:station:wmo:42907:1,2021-11-04T12:01:00Z,28.4776,-88.1676,19.3,26.3,11111222
BP,ioos:station:wmo:42907:1,2021-11-04T12:11:00Z,28.4776,-88.1676,19.3,26.3,11111222
BP,ioos:station:wmo:42907:1,2021-11-04T12:21:00Z,28.4776,-88.1676,19.4,26.3,11111222